[[{"header":{"parameterUnit":"m.s-1","parameterCategory":1,"la1":30.2991,"la2":30.254,"lo1":-89.0895,"lo2":-89.0444,"dy":0.0017,"dx":0.0017,"nx":28,"ny":28,"refTime":"2024-08-15T03:00:00:Z","depth":0,"parameterNumber":2,"parameterNumberName":"U-component_of_WINDS"},"data":[0,0,0,0,0,0,0,0,0,0,0,0,0,0,0,0,0,0,0,0,0,0,0,0,0,0,0,0,0,0,0,0,0,0,0,0,0,0,0,0,0,0,0,0,0,0,0,0,0,0,0,0,0,0,0,0,0,0,0.2247,0.2247,0,0.2219,0.2219,0.2219,0.2192,0.2191,0.2191,0.2191,0.216,0.216,0.2159,0,0,0,0,0,0,0,0,0,0,0,0,0,0.2275,0.2275,0.2247,0.2247,0.2246,0.2219,0.2219,0.2219,0.2192,0.2191,0.2191,0.2191,0.216,0.216,0.2159,0,0,0,0,0,0,0,0,0,0,0,0,0,0.2257,0.2275,0.2247,0.223,0.2228,0.2219,0.2219,0.2218,0.2192,0.2191,0.2191,0.219,0.2161,0.216,0.2159,0.2165,0,0,0.2157,0.2156,0,0,0,0,0,0,0,0,0.2258,0.2256,0.2233,0.2231,0.2229,0.2208,0.2218,0.22,0.2192,0.2205,0.2191,0.219,0.2176,0.2174,0.217,0.2163,0.2162,0.2157,0.2156,0.2156,0.2156,0,0,0,0,0,0,0,0.2259,0.2257,0.2236,0.2232,0.223,0.2223,0.222,0.2214,0.2194,0.2204,0.2202,0.2199,0.2175,0.2171,0.2169,0.2161,0.2157,0.2156,0.2156,0.2155,0.2158,0.2159,0,0,0,0,0,0,0.2263,0.2258,0.2237,0.2235,0.2242,0.2223,0.2219,0.2215,0.2194,0.219,0.22,0.2198,0.2173,0.217,0.2168,0.2174,0.2156,0.2155,0.2155,0.2158,0.2158,0.2159,0,0,0,0,0,0,0.2264,0.2262,0.2238,0.2246,0.2242,0.2223,0.2219,0.2215,0.2211,0.2191,0.2187,0.2199,0.2172,0.2169,0.2166,0.2172,0.2155,0.2154,0.2157,0.2158,0.2159,0.2185,0,0,0,0,0,0,0.2265,0.2262,0.2264,0.2246,0.2242,0.2237,0.2219,0.2215,0.221,0.2208,0.2189,0.2186,0.2171,0.2167,0.2165,0.2171,0.2154,0.2157,0.2158,0.2158,0.2183,0.2187,0.2189,0,0,0,0,0,0.2266,0.2272,0.2265,0.2262,0.2245,0.2237,0.2235,0.2219,0.2211,0.2212,0.22,0.2186,0.2172,0.2167,0.2165,0.217,0.2156,0.2157,0.2158,0.2182,0.2186,0.2189,0,0,0,0,0,0,0.229,0.2269,0.2261,0.2261,0.2251,0.2233,0.2235,0.2223,0.2215,0.2213,0.2193,0.2189,0.2188,0.2179,0.2174,0.2175,0.2162,0.2163,0.2181,0.2185,0.2187,0.219,0.2153,0,0,0,0,0,0.2296,0.2292,0.2274,0.2276,0.2272,0.2254,0.225,0.2239,0.2228,0.2223,0.221,0.2199,0.2192,0.2188,0.218,0.2182,0.2178,0.2185,0.2188,0.219,0.2191,0.2192,0.2195,0.2163,0.2163,0.2163,0,0,0.2307,0.2295,0.2294,0.2281,0.2272,0.2268,0.2251,0.2247,0.2244,0.2222,0.2219,0.2209,0.2195,0.2195,0.2194,0.2187,0.2199,0.2192,0.2194,0.2193,0.2193,0.2196,0.2199,0.2164,0.2164,0.2163,0,0,0.2326,0.2317,0.2318,0.2309,0.2296,0.2285,0.2285,0.2268,0.2261,0.2258,0.2241,0.2237,0.2225,0.2217,0.2211,0.2227,0.2214,0.2225,0.224,0.2241,0.2244,0.2246,0.2252,0.2254,0.2226,0.2226,0.2226,0,0.2341,0.2336,0.232,0.2318,0.2312,0.2293,0.2294,0.2287,0.2271,0.2268,0.2261,0.2246,0.2236,0.2233,0.2238,0.2233,0.2233,0.2227,0.2245,0.2247,0.2248,0.2254,0.2256,0.2227,0.2227,0.2227,0.2227,0,0.2355,0.2352,0.2354,0.2341,0.2336,0.2336,0.2319,0.2316,0.2306,0.2295,0.2292,0.2278,0.2268,0.2267,0.2256,0.2263,0.2259,0.2248,0.2235,0.2253,0.2258,0.226,0.2229,0.2229,0.2228,0.2228,0,0,0.2388,0.2367,0.2368,0.2362,0.2347,0.2344,0.2342,0.2333,0.2331,0.2321,0.232,0.2311,0.2301,0.2295,0.2283,0.2284,0.2298,0.2273,0.2272,0.2278,0.2305,0.2314,0.2316,0.229,0.229,0.229,0.2307,0,0.2404,0.2402,0.2388,0.2389,0.2385,0.2368,0.2366,0.2357,0.2347,0.2342,0.233,0.2325,0.2312,0.2308,0.2309,0.2296,0.2303,0.2295,0.2288,0.2288,0.2292,0.2319,0.2327,0.2343,0.2308,0.2309,0.2309,0,0.2423,0.2416,0.2417,0.2402,0.24,0.24,0.239,0.2386,0.2375,0.2367,0.2361,0.2348,0.2345,0.2333,0.2329,0.2324,0.232,0.2314,0.2314,0.2312,0.2299,0.2318,0.2348,0.2351,0.2312,0.2312,0.2311,0,0.2447,0.2437,0.2437,0.2433,0.2415,0.2415,0.2408,0.2396,0.2392,0.2384,0.2381,0.2372,0.2368,0.2361,0.2346,0.2339,0.2344,0.233,0.2338,0.2338,0.2339,0.234,0.2369,0.2337,0.2337,0.2337,0.2337,0,0.2467,0.2468,0.2448,0.2448,0.2449,0.2433,0.2434,0.2425,0.2415,0.2412,0.2396,0.2394,0.2374,0.237,0.2358,0.2357,0.2355,0.2348,0.2345,0.235,0.2351,0.2347,0.2346,0.2337,0.2337,0.2337,0.2337,0,0.2494,0.248,0.2479,0.2463,0.2459,0.2461,0.2447,0.2446,0.2436,0.2433,0.2431,0.2414,0.2408,0.2393,0.2382,0.2374,0.2377,0.237,0.2381,0.2379,0.2387,0.2386,0.2415,0.2418,0.2384,0.2385,0.2385,0,0.2508,0.2509,0.2493,0.2491,0.2485,0.2481,0.2477,0.2461,0.2457,0.2445,0.2445,0.2438,0.2432,0.2423,0.2409,0.2401,0.2395,0.2406,0.2394,0.2399,0.2396,0.2396,0.2396,0.2408,0.2409,0.2409,0.241,0,0.2533,0.2527,0.2522,0.2515,0.251,0.2504,0.2496,0.2495,0.2477,0.2474,0.2468,0.2463,0.2453,0.2446,0.2437,0.2428,0.2416,0.2414,0.2415,0.242,0.2426,0.2423,0.2388,0.2413,0.2413,0.2412,0.2412,0.2412,0.2554,0.2554,0.2544,0.2539,0.2532,0.2526,0.2524,0.2514,0.2509,0.25,0.2491,0.2486,0.2475,0.2461,0.2454,0.245,0.2443,0.2445,0.2445,0.2446,0.2449,0.2427,0.2448,0.2448,0.2448,0.2448,0.2447,0,0.2579,0.2572,0.2568,0.2558,0.2554,0.2544,0.2535,0.2533,0.2529,0.252,0.2515,0.2508,0.2502,0.2488,0.248,0.248,0.2474,0.2478,0.2478,0.2477,0.2455,0.2455,0.2483,0.2483,0.2483,0.2483,0.2483,0.2483,0.2592,0.2592,0.2584,0.2581,0.2573,0.2569,0.2565,0.2559,0.2552,0.2546,0.2541,0.2532,0.2522,0.2513,0.2507,0.2503,0.2501,0.2507,0.2502,0.2481,0.2478,0.2475,0.2474,0.2507,0.2507,0.2524,0.2524,0.2524]},{"header":{"parameterUnit":"m.s-1","parameterCategory":1,"la1":30.2991,"la2":30.254,"lo1":-89.0895,"lo2":-89.0444,"dy":0.0017,"dx":0.0017,"nx":28,"ny":28,"refTime":"2024-08-15T03:00:00:Z","depth":0,"parameterNumber":3,"parameterNumberName":"V-component_of_WINDS"},"data":[0,0,0,0,0,0,0,0,0,0,0,0,0,0,0,0,0,0,0,0,0,0,0,0,0,0,0,0,0,0,0,0,0,0,0,0,0,0,0,0,0,0,0,0,0,0,0,0,0,0,0,0,0,0,0,0,0,0,-2.6735,-2.6737,0,-2.686,-2.6862,-2.6863,-2.6864,-2.6862,-2.6861,-2.6859,-2.6983,-2.6988,-2.6993,0,0,0,0,0,0,0,0,0,0,0,0,0,-2.6495,-2.65,-2.6735,-2.6737,-2.6738,-2.686,-2.6862,-2.6863,-2.6864,-2.6862,-2.686,-2.6858,-2.6982,-2.6987,-2.6993,0,0,0,0,0,0,0,0,0,0,0,0,0,-2.6608,-2.6501,-2.6735,-2.6754,-2.6757,-2.686,-2.6862,-2.6864,-2.6865,-2.6862,-2.686,-2.6858,-2.698,-2.6987,-2.6994,-2.7086,0,0,-2.7016,-2.7019,0,0,0,0,0,0,0,0,-2.6601,-2.6616,-2.6749,-2.6753,-2.6756,-2.6844,-2.6822,-2.6938,-2.6865,-2.6823,-2.6859,-2.6856,-2.6939,-2.6949,-2.6977,-2.7091,-2.7097,-2.7016,-2.7021,-2.7024,-2.7026,0,0,0,0,0,0,0,-2.6594,-2.6611,-2.6785,-2.6751,-2.6755,-2.6755,-2.6768,-2.6844,-2.6893,-2.6827,-2.6827,-2.6842,-2.694,-2.6971,-2.698,-2.7098,-2.7016,-2.7022,-2.7027,-2.703,-2.7295,-2.7297,0,0,0,0,0,0,-2.6582,-2.6605,-2.6781,-2.6788,-2.6671,-2.6761,-2.6776,-2.6818,-2.6892,-2.6901,-2.6844,-2.6842,-2.6959,-2.6972,-2.6985,-2.7098,-2.7024,-2.703,-2.7034,-2.7292,-2.7295,-2.7298,0,0,0,0,0,0,-2.6577,-2.6598,-2.6776,-2.6697,-2.6719,-2.6768,-2.6815,-2.6822,-2.6853,-2.6905,-2.6913,-2.6867,-2.6958,-2.6975,-2.7061,-2.7102,-2.7034,-2.704,-2.7289,-2.7293,-2.7297,-2.7324,0,0,0,0,0,0,-2.657,-2.6596,-2.6632,-2.6698,-2.6724,-2.6851,-2.6818,-2.6826,-2.6865,-2.6863,-2.6928,-2.6937,-2.6958,-2.705,-2.7068,-2.7111,-2.7046,-2.7285,-2.7291,-2.7296,-2.732,-2.7329,-2.7336,0,0,0,0,0,-2.6562,-2.6634,-2.6634,-2.6655,-2.677,-2.6853,-2.6868,-2.6891,-2.6869,-2.6905,-2.6939,-2.6935,-2.7095,-2.7059,-2.7079,-2.7124,-2.7283,-2.7289,-2.7295,-2.7316,-2.7327,-2.7336,0,0,0,0,0,0,-2.657,-2.6643,-2.6644,-2.6739,-2.679,-2.6853,-2.6899,-2.6902,-2.6959,-2.6955,-2.698,-2.6995,-2.7081,-2.7111,-2.707,-2.7218,-2.7186,-2.7196,-2.7195,-2.7206,-2.7214,-2.7205,-2.7052,0,0,0,0,0,-2.6584,-2.6646,-2.6706,-2.6784,-2.681,-2.685,-2.6887,-2.6901,-2.6955,-2.6976,-2.7016,-2.7067,-2.7129,-2.7169,-2.7228,-2.7324,-2.7338,-2.7365,-2.7373,-2.738,-2.7389,-2.7442,-2.7455,-2.7319,-2.7319,-2.7319,0,0,-2.6611,-2.6658,-2.6696,-2.6787,-2.6828,-2.6892,-2.6868,-2.6936,-2.6984,-2.6986,-2.707,-2.7102,-2.716,-2.7252,-2.7294,-2.728,-2.743,-2.7388,-2.7393,-2.7398,-2.745,-2.7463,-2.7474,-2.7323,-2.7322,-2.7321,0,0,-2.6694,-2.6736,-2.6806,-2.6849,-2.6912,-2.6939,-2.6955,-2.7019,-2.704,-2.7126,-2.7129,-2.7185,-2.7291,-2.7333,-2.7368,-2.7468,-2.7467,-2.7487,-2.753,-2.7582,-2.7593,-2.7602,-2.7638,-2.7651,-2.7495,-2.7495,-2.7495,0,-2.6719,-2.6817,-2.6842,-2.6911,-2.6951,-2.6957,-2.7029,-2.7068,-2.7147,-2.7174,-2.7157,-2.7291,-2.7331,-2.7433,-2.7458,-2.7486,-2.7506,-2.7479,-2.7589,-2.7599,-2.7608,-2.7643,-2.7657,-2.7497,-2.7497,-2.7497,-2.7497,0,-2.6845,-2.6913,-2.6962,-2.704,-2.7086,-2.7155,-2.7191,-2.7234,-2.7244,-2.7272,-2.7359,-2.7408,-2.7478,-2.7503,-2.7513,-2.7607,-2.7596,-2.7584,-2.7552,-2.7623,-2.7656,-2.767,-2.75,-2.75,-2.7499,-2.7499,0,0,-2.6936,-2.7028,-2.7046,-2.7082,-2.7153,-2.7205,-2.7275,-2.7346,-2.7382,-2.7436,-2.7496,-2.7586,-2.7576,-2.7616,-2.763,-2.7676,-2.7753,-2.7658,-2.766,-2.7675,-2.786,-2.7869,-2.7884,-2.7753,-2.7756,-2.7758,-2.7856,0,-2.7026,-2.7153,-2.7178,-2.7287,-2.735,-2.7358,-2.7419,-2.7469,-2.7497,-2.7554,-2.7585,-2.7649,-2.763,-2.7655,-2.77,-2.7734,-2.7791,-2.7727,-2.7808,-2.7811,-2.7793,-2.7902,-2.7911,-2.8001,-2.7869,-2.7871,-2.7873,0,-2.7149,-2.7208,-2.7324,-2.7388,-2.7415,-2.747,-2.7537,-2.7591,-2.7648,-2.7666,-2.7711,-2.7721,-2.7794,-2.776,-2.786,-2.7817,-2.7851,-2.7873,-2.7877,-2.7885,-2.7846,-2.7913,-2.8031,-2.8044,-2.7893,-2.7892,-2.789,0,-2.7204,-2.7313,-2.7396,-2.7427,-2.7503,-2.7542,-2.7575,-2.763,-2.7671,-2.7729,-2.7756,-2.7821,-2.7857,-2.7907,-2.7934,-2.7906,-2.8033,-2.8,-2.8049,-2.8049,-2.8075,-2.8073,-2.82,-2.8097,-2.8097,-2.8097,-2.8096,0,-2.7302,-2.7373,-2.7422,-2.7474,-2.7553,-2.7582,-2.7659,-2.7692,-2.7741,-2.7798,-2.7808,-2.7862,-2.7895,-2.7953,-2.7975,-2.8055,-2.8071,-2.8087,-2.8092,-2.8086,-2.8084,-2.8109,-2.8104,-2.81,-2.8099,-2.8099,-2.8098,0,-2.7377,-2.7413,-2.7505,-2.757,-2.7589,-2.7644,-2.77,-2.775,-2.7779,-2.7852,-2.7871,-2.7916,-2.7986,-2.8018,-2.8103,-2.8118,-2.8209,-2.821,-2.8191,-2.8192,-2.824,-2.8235,-2.8387,-2.8409,-2.8291,-2.8292,-2.8293,0,-2.7437,-2.7492,-2.7564,-2.7605,-2.764,-2.7704,-2.7746,-2.7776,-2.782,-2.789,-2.7931,-2.8001,-2.8059,-2.8169,-2.8209,-2.8274,-2.8277,-2.8326,-2.8286,-2.828,-2.8278,-2.8275,-2.8281,-2.8332,-2.8334,-2.8335,-2.8335,0,-2.7541,-2.7557,-2.7618,-2.7687,-2.7738,-2.7792,-2.7846,-2.7878,-2.7917,-2.7965,-2.8037,-2.8082,-2.817,-2.824,-2.8308,-2.8341,-2.8345,-2.8348,-2.8362,-2.8357,-2.8344,-2.8352,-2.821,-2.8344,-2.8343,-2.8342,-2.8342,-2.8341,-2.7611,-2.766,-2.772,-2.7788,-2.7832,-2.7883,-2.7933,-2.797,-2.8031,-2.8106,-2.812,-2.8196,-2.8252,-2.8345,-2.8381,-2.8441,-2.8429,-2.8451,-2.8456,-2.8461,-2.8464,-2.8335,-2.8453,-2.8453,-2.8453,-2.8453,-2.8453,0,-2.7715,-2.7754,-2.7817,-2.7893,-2.7947,-2.7948,-2.8008,-2.8052,-2.812,-2.8173,-2.823,-2.8313,-2.8381,-2.8427,-2.8496,-2.8535,-2.8538,-2.8552,-2.8549,-2.8557,-2.847,-2.8451,-2.8548,-2.8548,-2.8548,-2.8548,-2.8548,-2.8548,-2.7776,-2.7861,-2.7883,-2.799,-2.8028,-2.8104,-2.8139,-2.8185,-2.8228,-2.8321,-2.8378,-2.8408,-2.8458,-2.8531,-2.8593,-2.8605,-2.8629,-2.8643,-2.8655,-2.8573,-2.8563,-2.8553,-2.8535,-2.8649,-2.8649,-2.8737,-2.8738,-2.8738]}]]